www.pogodaiklimat.ru

Погода и климат >> Архив погоды >> Литва >> Klaip?da


АРХИВ ПОГОДЫ в Klaip?da

Время (UTC), дата Ветер
(напр.,м/с)
 
Видим.   Явления Облачность Т
(С)
Тd
(С)
f
(%)
Тe
(С)
Тes
(С)
Комфортность P
(гПа)
Po
(гПа)
Тmin
(С)
Tmax
(С)
R
(мм)
R24
(мм)
S
(см)
15 14.11 СЗ 2-4
{6}
20 км 10/10 660 м
[Sc]
+9.2 +7.6 90 +7 +7 тепло 1025.1 1024.2
18 14.11 С 2-3
{6}
20 км 10/10 360 м
[Sc]
+9.5 +8.0 90 +8 +8 тепло 1026.4 1025.5 +10.2
21 14.11 С 1-3
{5}
20 км 10/10 1500 м
[Sc]
+9.4 +8.0 91 +9 +9 тепло 1027.9 1027.0
00 15.11 штиль 0-1
{3}
7000 м ясно +6.9 +6.6 98 +6 +6 тепло 1029.0 1028.1
03 15.11 штиль 0-1
{1}
8000 м дымка 10/10 300 м
[St]
+7.3 +7.2 99 +6 +6 тепло 1030.1 1029.2
06 15.11 В 1-2
{2}
8000 м дымка 10/10 1260 м
[Sc]
+7.1 +7.0 99 +6 +6 тепло 1031.4 1030.5 +6.5
09 15.11 ЮВ 1-2
{3}
15 км 10/10 1230 м
[Sc]
+9.4 +7.9 90 +9 +9 тепло 1032.7 1031.8
12 15.11 Ю 1-2
{2}
20 км 10/10 1300 м
[Sc]
+10.3 +8.1 86 +10 +10 тепло 1033.7 1032.8
15 15.11 ЮВ 1-2
{3}
20 км 10/10 1170 м
[Sc]
+9.2 +7.9 92 +8 +8 тепло 1034.9 1034.0
18 15.11 ЮВ 1-2
{4}
20 км 10/10 1140 м
[Sc]
+8.0 +6.1 88 +7 +7 тепло 1035.8 1034.9 +10.6
21 15.11 В 1-1
{4}
20 км 10/10 1170 м
[Sc]
+7.4 +6.0 91 +6 +6 тепло 1037.1 1036.2
00 16.11 ЮВ 2-3
{5}
20 км 10/10 1200 м
[Sc]
+6.5 +5.0 90 +4 +4 по сезону 1038.4 1037.5
03 16.11 ЮВ 2-3
{5}
19 км 10/10 1050 м
[Sc]
+6.6 +5.3 91 +4 +4 по сезону 1039.0 1038.1
06 16.11 ЮВ 2-4
{4}
20 км 10/10 1080 м
[Sc]
+6.3 +4.4 88 +4 +4 по сезону 1040.3 1039.4 +6.0
09 16.11 ЮВ 4-6
{6}
20 км 10/10 1020 м
[Sc]
+5.9 +3.2 83 +2 +2 по сезону 1042.0 1041.1
12 16.11 ЮВ 3-5
{7}
20 км ясно +6.4 +2.9 78 +3 +4 по сезону 1042.3 1041.4
15 16.11 Ю 2-5
{6}
20 км 10/10 540 м
[Sc]
+4.6 +1.4 80 +2 +2 по сезону 1043.0 1042.1
18 16.11 ЮВ 3-5
{7}
20 км 10/10 210 м
[St]
+2.2 +0.3 87 -2 -2 прохладно 1043.5 1042.6 +6.5
21 16.11 ЮВ 3-5
{7}
14 км 10/10 150 м
[St]
+2.2 +1.1 92 -2 -2 прохладно 1043.9 1043.0
00 17.11 ЮВ 3-5
{7}
16 км 10/10 400 м
[Sc]
+2.8 +0.9 87 -1 -1 по сезону 1043.7 1042.8
03 17.11 ЮВ 1-2
{6}
18 км 10/10 450 м
[Sc]
+3.2 +1.0 85 +2 +2 по сезону 1043.6 1042.7
06 17.11 ЮВ 1-3
{5}
19 км 10/10 300 м
[Sc]
+3.8 +1.5 85 +2 +2 по сезону 1042.8 1041.9 +1.9
09 17.11 Ю 2-5
{5}
19 км 10/10 480 м
[Sc]
+4.6 +2.6 87 +2 +2 по сезону 1042.3 1041.4
12 17.11 З 3-6
{8}
20 км 10/10 660 м
[Sc]
+6.4 +2.2 74 +3 +3 по сезону 1041.5 1040.6
15 17.11 З 4-6
{8}
20 км 10/10 600 м
[Sc]
+7.0 +3.0 76 +4 +4 по сезону 1039.8 1038.9
18 17.11 СЗ 3-5
{8}
20 км 10/10 600 м
[Sc]
+7.0 +3.1 76 +4 +4 по сезону 1037.9 1037.0 +7.2
21 17.11 СЗ 4-7
{9}
20 км 10/10 630 м
[Sc]
+7.0 +2.8 75 +4 +4 по сезону 1036.0 1035.1
00 18.11 СЗ 4-7
{9}
20 км 10/10 570 м
[Sc]
+6.7 +3.1 78 +3 +3 по сезону 1033.7 1032.8
03 18.11 СЗ 4-7
{9}
20 км в посл. час ливневой дождь 10/10 360 м
[Sc]
+7.9 +5.8 87 +5 +5 тепло 1030.7 1029.8
06 18.11 С 4-7
{8}
20 км {ливн. осадки} 6/6 300 м
[Sc]
+7.1 +3.4 77 +4 +4 по сезону 1028.6 1027.7 +6.7 0.2
09 18.11 СВ 3-7
{12}
20 км 10/10 700 м
[Sc]
+6.6 +2.5 75 +4 +4 по сезону 1029.0 1028.1
12 18.11 СВ 4-9
{10}
20 км 3/3 840 м
[Sc]
+6.7 +2.0 72 +3 +4 по сезону 1029.1 1028.2
15 18.11 С 3-5
{7}
19 км в посл. час ливневой дождь ясно +5.3 +2.8 84 +2 +2 по сезону 1029.3 1028.4
18 18.11 СВ 3-5
{7}
20 км {ливн. осадки} ясно +4.2 +1.5 83 +1 +1 по сезону 1029.7 1028.8 +7.5 0.0
21 18.11 СВ 3-6
{8}
20 км 8/8 800 м
[Sc]
+4.0 +0.2 76 0 0 по сезону 1030.4 1029.5
00 19.11 В 3-6
{9}
20 км 10/10 630 м
[Sc]
+3.5 -0.5 75 -0 -0 по сезону 1030.8 1029.9
03 19.11 СВ 3-6
{9}
20 км 10/10 700 м
[Sc]
+2.7 -0.4 80 -1 -1 по сезону 1031.2 1030.3
06 19.11 СВ 2-6
{8}
20 км 10/10 450 м
[Sc]
+2.1 +0.2 87 -1 -1 по сезону 1031.7 1030.8 +1.6
09 19.11 В 4-8
{8}
20 км 9/9 420 м
[Cu Sc]
+3.4 +0.4 81 -1 -1 по сезону 1032.7 1031.8
12 19.11 В 3-7
{9}
20 км 9/9 1300 м
[Cu Sc]
+4.5 +0.6 76 +1 +1 по сезону 1032.6 1031.7
15 19.11 СВ 2-4
{9}
20 км ясно +3.1 +0.2 81 0 0 по сезону 1032.7 1031.8
18 19.11 В 3-7
{8}
20 км 10/10 1440 м
[Sc]
+3.4 +0.1 79 -0 -0 по сезону 1033.2 1032.3 +4.6
21 19.11 В 3-6
{7}
20 км 10/10 1500 м
[Sc]
+2.9 -0.2 80 -1 -1 по сезону 1033.7 1032.8
00 20.11 В 3-5
{7}
20 км 10/10 1350 м
[Sc]
+1.7 -0.9 83 -3 -3 прохладно 1033.5 1032.6
03 20.11 В 3-5
{6}
20 км 10/10 1350 м
[Sc]
+1.4 -0.8 85 -3 -3 прохладно 1032.5 1031.6
06 20.11 В 3-5
{6}
20 км ясно -0.3 -1.9 89 -5 -5 холодно 1032.5 1031.6 -0.5
09 20.11 В 3-5
{6}
20 км 6/6 1200 м
[Sc]
-0.1 -2.0 87 -5 -5 холодно 1031.7 1030.8
12 20.11 В 3-4
{6}
20 км 10/10 1170 м
[Sc]
+2.2 -1.9 74 -2 -2 прохладно 1030.8 1029.9
15 20.11 В 2-4
{5}
20 км ясно -0.3 -1.9 89 -4 -4 холодно 1030.2 1029.3
18 20.11 В 3-5
{5}
20 км ясно -1.7 -2.6 94 -7 -7 очень
холодно
1030.0 1029.1 +2.4
21 20.11 В 4-7
{7}
15 км 10/10 90 м
[St]
-2.2 -2.7 96 -8 -8 очень
холодно
1030.4 1029.5
00 21.11 В 3-6
{7}
19 км 10/10 120 м
[St]
-2.1 -2.7 96 -7 -7 холодно 1030.8 1029.9
03 21.11 В 2-4
{6}
20 км 10/10 180 м
[St]
-2.0 -3.1 92 -6 -6 холодно 1031.2 1030.3
06 21.11 В 2-4
{6}
20 км 10/10 180 м
[St]
-2.0 -3.1 92 -6 -6 холодно 1030.6 1029.7 -2.3
09 21.11 В 2-4
{5}
20 км 10/10 360 м
[Sc]
-1.6 -4.0 84 -5 -5 холодно 1031.9 1031.0
12 21.11 В 3-6
{7}
20 км 10/10 400 м
[Sc]
-1.1 -4.1 80 -6 -6 холодно 1031.4 1030.5

 

Местоположение метеостанции Klaip?da (Литва): широта 55.73 долгота 21.07 высота над уровнем моря 7 м.

В архиве по умолчанию представлена погода в Klaip?da за последнюю неделю. Архивные данные за месяц целиком и за предыдущие месяцы, начиная с января 2011 года, Вы можете получить, выбрав интересующий диапазон дат из раскрывающегося списка и нажав кнопку "Ввод!".


*Определитесь, кто Вы:
робот инопланетянин человек

Внимание! Время в таблицах - всемирное. Для получения местного времени необходимо прибавить поправку, которая в Klaip?da равна 2 ч.

Смотрите также архив погоды в соседних городах и на ближайших метеорологических станциях:

Погода в Nidoje (Литва) (46 км)
Погода в ?ilut? (Литва) (49 км)
Погода в Рыбачьем (Калининградская область, Россия) (65 км)
Погода в Laukuvos (Литва) (74 км)
Погода в Tel?i? (Литва) (78 км)
Погода в Liep?ja (Латвия) (83 км)
Погода в Советске (Калининградская область, Россия) (90 км)
Погода в Пионерском (Калининградская область, Россия) (102 км)
Погода в Ma?eikiai (Литва) (104 км)
Погода в Калининграде (Калининградская область, Россия) (118 км)

Пояснения к столбцам:

Ветер - указаны скорость ветра в м/с - средняя за 10 мин, порывы в срок и между сроками (в фигурных скобках) и направление, откуда дует ветер: С - северный, СВ - северо-восточный, В - восточный, ЮВ - юго-восточный, Ю - южный, ЮЗ - юго-западный, З - западный, СЗ - северо-западный.
Видимость - горизонтальная дальность видимости в метрах или километрах. При видимости от 1 до 10 км при отсутствии осадков обычно наблюдается дымка, при ухудшении видимости до 1 км и менее - туман. В сухую погоду видимость может ухудшаться дымом, пылью или мглою.
Явления - указаны атмосферные явления, наблюдавшиеся в срок или в последний час перед сроком; фигурными скобками обозначены явления, наблюдавшиеся между сроками (за 1-3 часа до срока); квадратными скобками обозначены град или гололедные отложения с указанием их диаметра в мм.
Облачность - указаны через наклонную черту общая и нижняя облачность в баллах и высота нижней границы облаков в метрах; квадратными скобками обозначены формы облаков: Ci - перистые, Cs - перисто-слоистые, Cc - перисто-кучевые, Ac - высококучевые, As - высокослоистые, Sc - слоисто-кучевые, Ns - слоисто-дождевые, Cu - кучевые, Cb - кучево-дождевые. Подробнее классификацию облаков см. в Атласе облаков (PDF).
T - Температура воздуха - температура, измеренная на высоте 2 м над землей.
Td - Температура точки росы - температура, при понижении до которой содержащийся в воздухе водяной пар достигнет насыщения.
f - Относительная влажность воздуха - влажноcть воздуха, измеренная на высоте 2 м над землей.
Te - Эффективная температура - температура, которую ощущает одетый по сезону человек в тени. Характеристика душности погоды. При расчете учитывается влияние влажности воздуха и скорости ветра на теплоощущения человека.
Tes - Эффективная температура на солнце - температура, которую ощущает человек, с поправкой на солнечный нагрев. Характеристика знойности погоды. Зависит от высоты солнца над горизонтом, облачности и скорости ветра. Ночью, в пасмурную погоду, а также при ветре 12 м/с и более поправка равна нулю.
P - Атмосферное давление - приведенное к уровню моря атмосферное давление.
Po - Атмосферное давление - измеренное на уровне метеостанции атмосферное давление.
Tmin - Минимальная температура - минимум температуры воздуха на высоте 2 м над землей.
Tmax - Максимальная температура - максимум температуры воздуха на высоте 2 м над землей.
R - Количество осадков - Количество выпавших осадков за период времени, мм. При наведении курсора мыши на число - период времени, за который выпало указанное количество осадков.
R24 - Количество осадков - Количество выпавших осадков за 24 часа, мм.
S - Снежный покров - Высота снежного покрова, см. При наведении курсора мыши на число - состояние снежного покрова и степень покрытия местности в баллах.